Terug naar catalogus

CZ-4C SEP MOTOR COVER

ActiefSSO
NORAD 49024·DEBRIS·🇨🇳 China
Deze satellietnaam is nog niet bevestigd door officiële bronnen.

Gelanceerd Jul 4, 2021 vanaf Jiuquan Satellite Launch Center

Loading…

Volgende Passages (komende 24 uur)

TLE

VersSource: Space-Track

Epoch: Sep 13, 2026, 06:33 UTC

1 49024U 21062D   26256.27298771  .00000195  00000-0  93340-4 0  9992
2 49024  98.6587 277.3572 0005391 146.9554 213.1965 14.29586710270019

Volg CZ-4C SEP MOTOR COVER in realtime met AllMySat

Download on the App Store